This is the latest recevied weather packets stored in our database for station/object KJ5IIV. If no packets are shown the sender has not sent any weather packets the latest 10 day(s).
| Time | Temp. | Humidity | Pressure | Rain* | Wind** | Luminosity | Snow |
|---|---|---|---|---|---|---|---|
| 1777310382 | 30° C | 66% | 1009.2 hPa | 0 mm | - | 351 W/m² | - |
| 1777310078 | 30° C | 65% | 1009.3 hPa | 0 mm | - | 860 W/m² | - |
| 1777309777 | 30° C | 68% | 1009.5 hPa | 0 mm | - | 375 W/m² | - |
| 1777309474 | 30° C | 66% | 1009.3 hPa | 0 mm | - | 339 W/m² | - |
| 1777309171 | 30.56° C | 66% | 1009.4 hPa | 0 mm | - | 526 W/m² | - |
| 1777308869 | 30.56° C | 65% | 1009.5 hPa | 0 mm | - | 912 W/m² | - |
| 1777308564 | 30° C | 66% | 1009.3 hPa | 0 mm | - | 883 W/m² | - |
| 1777308260 | 30° C | 68% | 1009.3 hPa | 0 mm | - | 879 W/m² | - |
| 1777307956 | 29.44° C | 66% | 1009.4 hPa | 0 mm | - | 916 W/m² | - |
| 1777307654 | 29.44° C | 69% | 1009.4 hPa | 0 mm | - | 927 W/m² | - |
| 1777307350 | 29.44° C | 68% | 1009.6 hPa | 0 mm | - | 287 W/m² | - |
| 1777307048 | 30° C | 66% | 1009.5 hPa | 0 mm | - | 485 W/m² | - |
| 1777306745 | 29.44° C | 68% | 1009.4 hPa | 0 mm | - | 819 W/m² | - |
| 1777306442 | 28.89° C | 69% | 1009.5 hPa | 0 mm | - | 854 W/m² | - |
| 1777306137 | 28.89° C | 69% | 1009.4 hPa | 0 mm | - | 258 W/m² | - |
| 1777305833 | 28.89° C | 71% | 1009.4 hPa | 0 mm | - | 833 W/m² | - |
| 1777305529 | 28.89° C | 69% | 1009.3 hPa | 0 mm | - | 648 W/m² | - |
| 1777305224 | 28.89° C | 70% | 1009.3 hPa | 0 mm | - | 785 W/m² | - |
| 1777304919 | 28.33° C | 72% | 1009.3 hPa | 0 mm | - | 829 W/m² | - |
| 1777304616 | 28.33° C | 72% | 1009.3 hPa | 0 mm | - | 323 W/m² | - |
| 1777304313 | 27.78° C | 76% | 1009.2 hPa | 0 mm | - | 629 W/m² | - |
| 1777304010 | 27.78° C | 74% | 1009.3 hPa | 0 mm | - | 292 W/m² | - |
* Rain latest hour (hover to see other rain measurements)
** Current wind speed in m/s (hover to see current wind gust speed)